Location: Sungai Bunut
(2.6333°N, 113.7333°E)
Time: 21:20:23
(UTC+00:00)

Vanguard 1 - Pass Details

Date: 03 December 2023
Orbit: 653 x 3826 km, 34.3° (Epoch: 28 February)

Event Time Altitude Azimuth Distance (km) Brightness Sun altitude
Exits shadow 19:40:20 58° 252° (WSW) 2,590 11.8 -36.5°
Maximum altitude 19:42:12 62° 222° (SW) 2,371 11.7 -36.1°
Drops below altitude 10° 19:51:44 10° 142° (SE) 3,565 13.6 -33.9°
Sets 19:54:07 0° 138° (SE) 4,253 14.2 -33.4°
